FW2608 Weather Reports


time (UTC)temp
F
wind
direction
speed
knots
gust
knots
rain 1hr
in
rain 24hr
in
rain mn
in
humidity
%
barometer
mb
20260503194534 87 359 2.6 6.1 0.00 0.00 0.00 37 1013.7
20260503191536 86 6 2.6 6.1 0.00 0.00 0.00 39 1013.9
20260503190035 85 359 2.6 5.2 0.00 0.00 0.00 41 1014.1
20260503184641 84 353 2.6 5.2 0.00 0.00 0.00 43 1014.3
20260503183119 82 8 1.7 5.2 0.00 0.00 0.00 43 1014.5
20260503181535 82 325 0.9 3.5 0.00 0.00 0.00 43 1014.6
20260503174536 80 22 0.9 3.5 0.00 0.00 0.00 46 1015.0
20260503173037 79 40 0.9 3.5 0.00 0.00 0.00 50 1015.1
20260503171535 77 40 1.7 3.5 0.00 0.00 0.00 55 1015.2
20260503120142 44 212 0.9 2.6 0.00 0.00 0.00 96 1015.3
20260503110111 46 247 0.9 2.6 0.00 0.00 0.00 95 1015.5
20260503071533 52 247 0.0 0.0 0.00 0.00 0.00 92 1015.2
20260503070108 53 247 0.0 0.0 0.00 0.00 0.00 92 1015.2
20260503054643 56 258 0.0 1.7 0.00 0.00 0.00 87 1015.0
20260503044643 57 97 0.0 1.7 0.00 0.00 0.00 84 1014.6
20260503041535 58 56 0.9 1.7 0.00 0.00 0.00 82 1014.5
20260503040040 59 117 0.0 1.7 0.00 0.00 0.00 80 1014.3
20260503034532 61 157 0.0 0.0 0.00 0.00 0.00 78 1013.9
20260503033143 62 157 0.0 1.7 0.00 0.00 0.00 77 1013.5
20260503031535 63 58 0.9 2.6 0.00 0.00 0.00 75 1013.1
20260503030032 65 112 0.0 0.0 0.00 0.00 0.00 73 1012.8
20260503023152 68 120 0.9 2.6 0.00 0.00 0.00 68 1012.6
20260503021535 69 72 0.9 3.5 0.00 0.00 0.00 65 1012.5
20260503014534 72 22 0.9 1.7 0.00 0.00 0.00 59 1012.3
20260503013033 74 355 0.9 1.7 0.00 0.00 0.00 56 1012.4
20260503011536 76 20 1.7 3.5 0.00 0.00 0.00 52 1012.3
20260503004535 80 5 0.9 3.5 0.00 0.00 0.00 48 1012.3
20260503003143 80 44 0.9 3.5 0.00 0.00 0.00 48 1012.3
20260503000038 83 35 2.6 6.1 0.00 0.00 0.00 44 1012.4
20260502234532 82 11 0.9 3.5 0.00 0.00 0.00 45 1012.6
20260502231535 80 1 2.6 4.3 0.00 0.00 0.00 48 1013.0
20260502230042 79 353 1.7 3.5 0.00 0.00 0.00 49 1013.1
20260502224531 79 337 2.6 5.2 0.00 0.00 0.00 50 1013.5
20260502223036 79 341 2.6 5.2 0.00 0.00 0.00 51 1013.7
20260502221534 79 352 2.6 6.1 0.00 0.00 0.00 53 1013.9
20260502220039 77 359 2.6 6.1 0.00 0.00 0.00 55 1014.1
20260502214531 75 13 0.9 4.3 0.00 0.00 0.00 56 1014.4
20260502213143 74 355 1.7 6.1 0.00 0.00 0.00 57 1014.6
20260502211552 74 355 0.9 4.3 0.00 0.00 0.00 56 1014.8
20260502204532 69 147 0.0 4.3 0.00 0.00 0.00 65 1015.5
20260502203037 65 260 1.7 5.2 0.00 0.00 0.00 70 1015.5